Flag Weather past 2 weeks in Mashhad, Iran

Now
43 °F

Fog.


Feels Like: 40 °F
Forecast: 31 / 45 °F
Wind: 5 mph from Northeast

Location: Mashhad Airport

Current Time: Nov 29, 2014 at 12:50:06 PM

Latest Report: Nov 29, 2014 at 12:30 PM


Visibility: 2 mi

Pressure: 30.15 "Hg

Humidity: 87%

Dew point: 39 °F

Location of MashhadLocation

Historic Weather in Mashhad — Graph

°F

Mashhad temperature yesterday

Maximum temperature yesterday: 43 °F (at 12:00 PM)
Minimum temperature yesterday: 39 °F (at 12:30 AM)
Average temperature yesterday: 41 °F

Past Weeks' High & Low Weather Summary

 TemperatureHumidityPressure
High70 °F (Nov 16, 2:30 PM)100% (Nov 19, 10:30 PM)30.36 "Hg (Nov 19, 10:30 PM)
Low34 °F (Nov 26, 10:00 PM)17% (Nov 16, 2:30 PM)29.80 "Hg (Nov 23, 2:00 PM)
Average46 °F73%30.17 "Hg
* Reported Nov 14 11:30 AM — Nov 29 11:30 AM, Mashhad, Weather by CustomWeather, © 2014

Note: Actual official high and low records may vary slightly from our data, if they occured in-between our weather recording intervals... More about our weather records

Advertising

Mashhad weather history for previous 24 hours

 ConditionsComfort  
Time TempWeatherWind HumidityBarometerVisibility
11:30 AM
Nov 29
43 °FFog.5 mph87%30.18 "Hg1 mi
11:00 AM43 °FFog.5 mph87%30.18 "Hg1 mi
10:30 AM43 °FFog.No wind81%30.18 "Hg1 mi
10:00 AM41 °FFog.No wind87%30.18 "Hg1 mi
9:30 AM41 °FFog.5 mph93%30.18 "Hg1 mi
9:00 AM41 °FFog.No wind93%30.18 "Hg1 mi
8:30 AM41 °FFog.7 mph87%30.18 "Hg1 mi
8:00 AM41 °FFog.5 mph87%30.18 "Hg2 mi
7:30 AM41 °FFog.No wind87%30.18 "Hg1 mi
7:00 AM41 °FFog.9 mph87%30.18 "Hg1 mi
6:30 AM41 °FFog.No wind93%30.15 "Hg1 mi
6:00 AM41 °FFog.5 mph93%30.15 "Hg1 mi
5:30 AM39 °FFog.7 mph100%30.12 "Hg1 mi
5:00 AM39 °FFog.5 mph100%30.12 "Hg1 mi
4:30 AM39 °FFog.5 mph100%30.12 "Hg1 mi
4:00 AM39 °FFog.5 mph100%30.12 "Hg1 mi
3:30 AM39 °FFog.5 mph100%30.12 "Hg1 mi
3:00 AM39 °FFog.5 mph100%30.12 "Hg1 mi
2:30 AM39 °FFog.7 mph100%30.15 "Hg1 mi
2:00 AM39 °FFog.5 mph100%30.15 "Hg1 mi
1:30 AM39 °FFog.5 mph100%30.15 "Hg1 mi
1:00 AM39 °FFog.7 mph100%30.15 "Hg1 mi
12:30 AM39 °FFog.5 mph100%30.15 "Hg1 mi
12:00 AM39 °FFog.5 mph100%30.15 "Hg1 mi
11:30 PM
Nov 28
39 °FFog.7 mph100%30.18 "Hg1 mi
11:00 PM39 °FFog.7 mph100%30.18 "Hg1 mi
10:30 PM39 °FFog.7 mph100%30.18 "Hg1 mi
10:00 PM39 °FFog.7 mph100%30.18 "Hg1 mi
9:30 PM39 °FFog.7 mph100%30.18 "Hg1 mi
9:00 PM39 °FFog.9 mph100%30.18 "Hg1 mi
8:30 PM39 °FFog.7 mph100%30.18 "Hg1 mi
8:00 PM41 °FFog.9 mph100%30.18 "Hg1 mi
7:30 PM41 °FFog.5 mph100%30.18 "Hg2 mi
7:00 PM43 °FFog.5 mph93%30.18 "Hg2 mi
6:30 PM43 °FFog.5 mph93%30.15 "Hg2 mi
6:00 PM43 °FFog.5 mph93%30.15 "Hg2 mi
5:30 PM43 °FFog.7 mph93%30.15 "Hg2 mi
5:00 PM43 °FFog.7 mph93%30.15 "Hg2 mi
4:30 PM43 °FFog.7 mph93%30.15 "Hg2 mi
4:00 PM43 °FFog.7 mph93%30.15 "Hg2 mi
3:30 PM43 °FFog.5 mph100%30.15 "Hg2 mi
3:00 PM43 °FFog.5 mph93%30.15 "Hg2 mi
2:30 PM43 °FOvercast.5 mph100%30.15 "Hg1 mi
2:00 PM43 °FFog.No wind100%30.15 "Hg1 mi
1:30 PM43 °FFog.7 mph100%30.15 "Hg1 mi
1:00 PM43 °FFog.5 mph100%30.15 "Hg1 mi
12:30 PM43 °FFog.No wind100%30.15 "Hg1 mi
12:00 PM43 °FDrizzle. Fog.5 mph100%30.18 "Hg1 mi
Weather by CustomWeather, © 2014

See weather overviewHow to use our weather pages